STARLINK-11598, 63113

Orbit data source: Space-Track

STARLINK-11598, 63113 is a payload satellite owned by SpaceX/Seattle (US) in LEO that was launched on Thu, 27 Feb 2025 UTC via an FALCON 9 launch vehicle from the Air Force Eastern Test Range (AFETR). Payload-class satellites include a variety of spacecraft equipped with specific instruments for various scientific and technological missions. These include communications satellites like Starlink; space stations such as the ISS; scientific satellites like the Hubble; Earth observation satellites from companies like Planet Labs, Umbra, and HawkEye 360; GPS; miniature CubeSats for education and research; and military/defense satellites.

Loading next visibility...
Identifier
63113, 2025-039K
Orbit
LEO
Country
Flag of USUS
Related business
Manufacturer
SpaceX/Seattle
Mission
Operational Commercial Communications
Bus & Motor
STARLINK V2MD, Unknown motor
Mass
960 kg wet, ~910 kg dry
Launch date (UTC)
2025-02-27 (7 months ago)
Launch vehicle
FALCON 9
Launch site
Air Force Eastern Test Range (AFETR)
Object type
Payload
Rocket body
Debris
Shape & HBR
Box + 2 Pan, 14.5 m
Radar Cross Section
36.964 m², Large (>1 m²)

Expand to show TLE details & history
Last TLE update: 18 hours ago

TLE from 18 hours ago
0 STARLINK-11598
1 63113U 25039K   25258.00251689  .00321837  00000-0  23982-2 0  9996
2 63113  43.0002 215.8982 0002595 238.9229 121.1384 15.71013752 31989
Epoch: 2025-09-15T00:03Z
TLE epoch observation values (Epoch: 2025-09-15T00:03:37.459Z)
Latitude
-0.00002°
Longitude
-139.22133°
Altitude
356.674 km
Speed
7.697 km/s
True Right ascension
14h 23m 35s
True Declination
0° 00' 00"
Sunlit
Object was in daylight at epoch
Visualization orbit readout
Latitude
Unknown
Longitude
Unknown
Altitude
Unknown
Speed
Unknown
Apparent Right ascension
Unknown
Apparent Declination
Unknown
Sunlit
N/A
Visualization observer readout
Local Sidereal Time
11:01:41
Azimuth
Unknown
Elevation
Unknown
Doppler factor
Unknown
Orbital elements
Apogee altitude
359.728 km
Perigee altitude
356.232 km
Semi-major axis
6,736.117 km
Eccentricity
0.00026
Inclination
43.0002°
RAAN
215.8982°
Arg. of periapsis
238.9229°
True anomaly
121.16385°
Mean anomaly
121.1384°
Eccentric anomaly
121.15112°
Mean motion
3.9258 °/min
Orbital period
91.7 mins
BSTAR
0.0023982
Loading maneuver chart data...
Computing Atmospheric mass density...
Loading historical data...
Loading historical data...
Loading historical data...
Loading historical data...
Loading historical data...
Loading historical data...
Loading historical data...

Documentation

Showing up to 5 results
|